Location: Ostrava
(49.8330°N, 18.2830°E)
Time: 21:20:03
(UTC+02:00)

Iridium 7 - Visible Passes

Search period start: 20 June 2018 00:00
Search period end: 30 June 2018 00:00
Orbit: 776 x 779 km, 86.4° (Epoch: 20 June)

Date Brightness Start Highest point End Pass type
(mag) Time Alt. Az. Time Alt. Az. Time Alt. Az.
20 Jun 8.9 03:37:49 10° NE 03:39:05 11° ENE 03:40:23 10° ENE visible
23 Jun 8.4 03:36:28 10° NNE 03:39:23 15° ENE 03:42:18 10° E visible
26 Jun 8.2 03:35:50 10° NNE 03:39:38 20° ENE 03:43:25 10° ESE visible
27 Jun 8.5 03:03:35 10° NE 03:05:36 12° ENE 03:07:37 10° E visible
29 Jun 7.7 03:35:26 10° NNE 03:39:50 27° ENE 03:44:12 10° SE visible
